When you browse on this site, cookies collect data to enhance your experience and personalize the content and advertising you see.
Visit our Privacy Policy to learn more. By continuing to use the site, you agree to this use of cookies and data.
  • In Österreich
  • Länderverzeichnis
  • Für 7 Tage
  • Wassertemperatur
  • Wetterkarte
  • News
  • Widgets
  • user-avatar
    Anmelden

    Stündliche Wetter Zorya

    Heute, 25 August, Sonntag

    Zeit Temperatur Niederschläge Wind Luftdruck Luftfeuchtigkeit
    00:00 +25°C° 0 mm 4 m/S 761 mmHg 60%
    01:00 +25°C° 0 mm 4 m/S 761 mmHg 63%
    02:00 +23°C° 0 mm 4 m/S 761 mmHg 68%
    03:00 +23°C° 0 mm 4 m/S 761 mmHg 70%
    04:00 +22°C° 0 mm 4 m/S 761 mmHg 72%
    05:00 +22°C° 0 mm 4 m/S 761 mmHg 73%
    06:00 +23°C° 0 mm 5 m/S 761 mmHg 68%
    07:00 +26°C° 0 mm 5 m/S 761 mmHg 63%
    08:00 +28°C° 0 mm 5 m/S 762 mmHg 55%
    09:00 +29°C° 0 mm 5 m/S 762 mmHg 50%
    10:00 +32°C° 0 mm 5 m/S 761 mmHg 45%
    11:00 +33°C° 0 mm 6 m/S 761 mmHg 40%
    12:00 +34°C° 0 mm 6 m/S 761 mmHg 37%
    13:00 +34°C° 0 mm 6 m/S 761 mmHg 33%
    14:00 +35°C° 0 mm 5 m/S 761 mmHg 28%
    15:00 +34°C° 0 mm 5 m/S 761 mmHg 27%
    16:00 +33°C° 0 mm 5 m/S 761 mmHg 26%
    17:00 +33°C° 0 mm 5 m/S 761 mmHg 25%
    18:00 +30°C° 0 mm 5 m/S 761 mmHg 28%
    19:00 +28°C° 0 mm 5 m/S 761 mmHg 31%
    20:00 +26°C° 0 mm 5 m/S 762 mmHg 34%
    21:00 +25°C° 0 mm 5 m/S 762 mmHg 38%
    22:00 +23°C° 0 mm 5 m/S 762 mmHg 41%
    23:00 +23°C° 0 mm 5 m/S 762 mmHg 45%

    Morgen, 26 August, Montag

    Zeit Temperatur Niederschläge Wind Luftdruck Luftfeuchtigkeit
    00:00 +22°C° 0 mm 5 m/S 762 mmHg 47%
    01:00 +21°C° 0 mm 5 m/S 762 mmHg 49%
    02:00 +21°C° 0 mm 5 m/S 763 mmHg 51%
    03:00 +20°C° 0 mm 5 m/S 763 mmHg 54%
    04:00 +20°C° 0 mm 5 m/S 763 mmHg 57%
    05:00 +19°C° 0 mm 5 m/S 763 mmHg 60%
    06:00 +21°C° 0 mm 5 m/S 763 mmHg 56%
    07:00 +23°C° 0 mm 5 m/S 763 mmHg 53%
    08:00 +24°C° 0 mm 6 m/S 763 mmHg 49%
    09:00 +27°C° 0 mm 6 m/S 763 mmHg 44%
    10:00 +29°C° 0 mm 6 m/S 763 mmHg 39%
    11:00 +32°C° 0 mm 5 m/S 763 mmHg 33%
    12:00 +32°C° 0 mm 5 m/S 763 mmHg 33%
    13:00 +32°C° 0 mm 5 m/S 763 mmHg 33%
    14:00 +33°C° 0 mm 5 m/S 762 mmHg 33%
    15:00 +32°C° 0 mm 5 m/S 762 mmHg 34%
    16:00 +30°C° 0 mm 5 m/S 762 mmHg 36%
    17:00 +30°C° 0 mm 6 m/S 761 mmHg 37%
    18:00 +28°C° 0 mm 5 m/S 762 mmHg 41%
    19:00 +26°C° 0 mm 5 m/S 762 mmHg 44%
    20:00 +25°C° 0 mm 5 m/S 762 mmHg 47%
    21:00 +23°C° 0 mm 5 m/S 762 mmHg 48%
    22:00 +22°C° 0 mm 5 m/S 762 mmHg 49%
    23:00 +22°C° 0 mm 5 m/S 762 mmHg 49%

    übermorgen, 27 August, Dienstag

    Zeit Temperatur Niederschläge Wind Luftdruck Luftfeuchtigkeit
    00:00 +21°C° 0 mm 4 m/S 762 mmHg 50%
    01:00 +20°C° 0 mm 4 m/S 762 mmHg 51%
    02:00 +20°C° 0 mm 4 m/S 762 mmHg 51%
    03:00 +19°C° 0 mm 4 m/S 762 mmHg 52%
    04:00 +19°C° 0 mm 4 m/S 762 mmHg 53%
    05:00 +18°C° 0 mm 4 m/S 762 mmHg 53%
    06:00 +20°C° 0 mm 4 m/S 762 mmHg 49%
    07:00 +22°C° 0 mm 5 m/S 762 mmHg 45%
    08:00 +23°C° 0 mm 6 m/S 762 mmHg 40%
    09:00 +26°C° 0 mm 6 m/S 762 mmHg 37%
    10:00 +27°C° 0 mm 6 m/S 761 mmHg 34%
    11:00 +29°C° 0 mm 6 m/S 761 mmHg 30%
    12:00 +29°C° 0 mm 5 m/S 761 mmHg 28%
    13:00 +30°C° 0 mm 5 m/S 761 mmHg 26%
    14:00 +30°C° 0 mm 5 m/S 761 mmHg 24%
    15:00 +30°C° 0 mm 4 m/S 760 mmHg 24%
    16:00 +30°C° 0 mm 4 m/S 760 mmHg 25%
    17:00 +29°C° 0 mm 4 m/S 760 mmHg 26%
    18:00 +27°C° 0 mm 4 m/S 760 mmHg 29%
    19:00 +25°C° 0 mm 3 m/S 761 mmHg 33%
    20:00 +24°C° 0 mm 3 m/S 761 mmHg 37%
    21:00 +22°C° 0 mm 3 m/S 761 mmHg 40%
    22:00 +21°C° 0 mm 3 m/S 761 mmHg 43%
    23:00 +20°C° 0 mm 3 m/S 761 mmHg 47%

    28 August, Mittwoch

    Zeit Temperatur Niederschläge Wind Luftdruck Luftfeuchtigkeit
    00:00 +20°C° 0 mm 3 m/S 761 mmHg 51%
    01:00 +19°C° 0 mm 3 m/S 761 mmHg 55%
    02:00 +19°C° 0 mm 3 m/S 761 mmHg 59%
    03:00 +18°C° 0 mm 3 m/S 761 mmHg 63%
    04:00 +18°C° 0 mm 3 m/S 761 mmHg 66%
    05:00 +18°C° 0 mm 3 m/S 761 mmHg 70%
    06:00 +20°C° 0 mm 3 m/S 761 mmHg 66%
    07:00 +21°C° 0 mm 3 m/S 761 mmHg 62%
    08:00 +24°C° 0 mm 3 m/S 761 mmHg 59%
    09:00 +26°C° 0 mm 4 m/S 761 mmHg 53%
    10:00 +27°C° 0 mm 4 m/S 761 mmHg 48%
    11:00 +28°C° 0 mm 4 m/S 760 mmHg 42%
    12:00 +29°C° 0 mm 4 m/S 760 mmHg 39%
    13:00 +29°C° 0 mm 4 m/S 760 mmHg 36%
    14:00 +30°C° 0 mm 4 m/S 760 mmHg 32%
    15:00 +29°C° 0 mm 4 m/S 760 mmHg 31%
    16:00 +29°C° 0 mm 4 m/S 760 mmHg 30%
    17:00 +29°C° 0 mm 4 m/S 760 mmHg 29%
    18:00 +27°C° 0 mm 4 m/S 760 mmHg 34%
    19:00 +25°C° 0 mm 4 m/S 760 mmHg 39%
    20:00 +22°C° 0 mm 4 m/S 760 mmHg 43%
    21:00 +21°C° 0 mm 5 m/S 761 mmHg 46%
    22:00 +21°C° 0 mm 5 m/S 761 mmHg 49%
    23:00 +20°C° 0 mm 6 m/S 761 mmHg 52%

    29 August, Donnerstag

    Zeit Temperatur Niederschläge Wind Luftdruck Luftfeuchtigkeit
    00:00 +19°C° 0 mm 6 m/S 761 mmHg 54%
    01:00 +17°C° 0 mm 5 m/S 761 mmHg 56%
    02:00 +16°C° 0 mm 5 m/S 761 mmHg 58%
    03:00 +16°C° 0 mm 5 m/S 761 mmHg 58%
    04:00 +15°C° 0 mm 5 m/S 762 mmHg 58%
    05:00 +14°C° 0 mm 5 m/S 762 mmHg 58%
    06:00 +15°C° 0 mm 5 m/S 762 mmHg 51%
    07:00 +16°C° 0 mm 6 m/S 762 mmHg 44%
    08:00 +17°C° 0 mm 6 m/S 762 mmHg 37%
    09:00 +20°C° 0 mm 6 m/S 762 mmHg 34%
    10:00 +21°C° 0 mm 6 m/S 762 mmHg 32%
    11:00 +22°C° 0 mm 6 m/S 762 mmHg 29%
    12:00 +22°C° 0 mm 6 m/S 762 mmHg 29%
    13:00 +23°C° 0 mm 6 m/S 762 mmHg 28%
    14:00 +23°C° 0 mm 6 m/S 761 mmHg 28%
    15:00 +23°C° 0 mm 6 m/S 761 mmHg 30%
    16:00 +22°C° 0 mm 6 m/S 761 mmHg 31%
    17:00 +22°C° 0 mm 6 m/S 761 mmHg 33%
    18:00 +20°C° 0 mm 6 m/S 761 mmHg 37%
    19:00 +19°C° 0 mm 6 m/S 761 mmHg 40%
    20:00 +16°C° 0 mm 5 m/S 761 mmHg 43%
    21:00 +16°C° 0 mm 5 m/S 761 mmHg 45%
    22:00 +15°C° 0 mm 5 m/S 761 mmHg 46%
    23:00 +15°C° 0 mm 5 m/S 761 mmHg 47%

    30 August, Freitag

    Zeit Temperatur Niederschläge Wind Luftdruck Luftfeuchtigkeit
    00:00 +14°C° 0 mm 5 m/S 761 mmHg 48%
    01:00 +14°C° 0 mm 5 m/S 761 mmHg 48%
    02:00 +13°C° 0 mm 5 m/S 761 mmHg 49%
    03:00 +13°C° 0 mm 5 m/S 761 mmHg 50%
    04:00 +13°C° 0 mm 5 m/S 761 mmHg 51%
    05:00 +12°C° 0 mm 5 m/S 762 mmHg 51%
    06:00 +14°C° 0 mm 5 m/S 762 mmHg 47%
    07:00 +16°C° 0 mm 6 m/S 762 mmHg 43%
    08:00 +19°C° 0 mm 6 m/S 762 mmHg 38%
    09:00 +20°C° 0 mm 6 m/S 762 mmHg 37%
    10:00 +21°C° 0 mm 7 m/S 762 mmHg 36%
    11:00 +23°C° 0 mm 7 m/S 762 mmHg 36%
    12:00 +23°C° 0 mm 7 m/S 762 mmHg 36%
    13:00 +24°C° 0 mm 6 m/S 761 mmHg 36%
    14:00 +26°C° 0 mm 6 m/S 761 mmHg 36%
    15:00 +24°C° 0 mm 6 m/S 761 mmHg 38%
    16:00 +24°C° 0 mm 6 m/S 761 mmHg 39%
    17:00 +24°C° 0 mm 6 m/S 761 mmHg 40%
    18:00 +22°C° 0 mm 5 m/S 761 mmHg 45%
    19:00 +21°C° 0 mm 5 m/S 761 mmHg 49%
    20:00 +19°C° 0 mm 5 m/S 761 mmHg 53%
    21:00 +19°C° 0 mm 5 m/S 762 mmHg 54%
    22:00 +17°C° 0 mm 5 m/S 762 mmHg 54%
    23:00 +17°C° 0 mm 4 m/S 762 mmHg 55%
    Mehr zeigen